This is the latest recevied weather packets stored in our database for station/object K5FEP. If no packets are shown the sender has not sent any weather packets the latest 10 day(s).
| Time | Temp. | Humidity | Pressure | Rain* | Wind** | Luminosity | Snow |
|---|---|---|---|---|---|---|---|
| 1777673589 | 20.56° C | 44% | 1010.6 hPa | 0 mm | - | 175 W/m² | - |
| 1777673287 | 20° C | 42% | 1010.7 hPa | 0 mm | - | 188 W/m² | - |
| 1777672983 | 20° C | 41% | 1010.6 hPa | 0 mm | - | 263 W/m² | - |
| 1777672680 | 20.56° C | 40% | 1010.6 hPa | 0 mm | - | 259 W/m² | - |
| 1777672376 | 20° C | 44% | 1010.7 hPa | 0 mm | - | 224 W/m² | - |
| 1777672071 | 20° C | 43% | 1010.7 hPa | 0 mm | - | 208 W/m² | - |
| 1777671767 | 20° C | 42% | 1010.8 hPa | 0 mm | - | 186 W/m² | - |
| 1777671463 | 20° C | 42% | 1011 hPa | 0 mm | - | 348 W/m² | - |
| 1777671160 | 20° C | 42% | 1010.9 hPa | 0 mm | - | 224 W/m² | - |
| 1777670856 | 20° C | 42% | 1010.9 hPa | 0 mm | - | 306 W/m² | - |
| 1777670553 | 20.56° C | 40% | 1010.8 hPa | 0 mm | - | 230 W/m² | - |
| 1777670250 | 20.56° C | 39% | 1010.7 hPa | 0 mm | - | 324 W/m² | - |
| 1777669947 | 20° C | 39% | 1010.9 hPa | 0 mm | - | 332 W/m² | - |
| 1777669644 | 20° C | 40% | 1010.8 hPa | 0 mm | - | 421 W/m² | - |
| 1777669341 | 20° C | 40% | 1010.9 hPa | 0 mm | - | 336 W/m² | - |
| 1777669037 | 20° C | 40% | 1011.2 hPa | 0 mm | - | 340 W/m² | - |
| 1777668734 | 20° C | 38% | 1011.1 hPa | 0 mm | - | 424 W/m² | - |
| 1777668431 | 20° C | 38% | 1011.2 hPa | 0 mm | - | 443 W/m² | - |
| 1777668128 | 19.44° C | 39% | 1011 hPa | 0 mm | - | 279 W/m² | - |
| 1777667824 | 20° C | 38% | 1011.3 hPa | 0 mm | - | 275 W/m² | - |
| 1777667521 | 20° C | 38% | 1011.3 hPa | 0 mm | - | 330 W/m² | - |
| 1777667218 | 20° C | 38% | 1011.3 hPa | 0 mm | - | 436 W/m² | - |
| 1777666915 | 20.56° C | 36% | 1011.3 hPa | 0 mm | - | 455 W/m² | - |
| 1777666612 | 20.56° C | 38% | 1011.3 hPa | 0 mm | - | 579 W/m² | - |
| 1777666309 | 20.56° C | 36% | 1011.5 hPa | 0 mm | - | 556 W/m² | - |
* Rain latest hour (hover to see other rain measurements)
** Current wind speed in m/s (hover to see current wind gust speed)